Showing default

KORSAT-1, 59452

Orbit data source: Space-Track

KORSAT-1, 59452 is a payload satellite owned by DAPA (KR) in LEO that was launched on Sun, 07 Apr 2024 UTC via an FALCON 9 launch vehicle from the Air Force Eastern Test Range (AFETR). Payload-class satellites include a variety of spacecraft equipped with specific instruments for various scientific and technological missions. These include communications satellites like Starlink; space stations such as the ISS; scientific satellites like the Hubble; Earth observation satellites from companies like Planet Labs, Umbra, and HawkEye 360; GPS; miniature CubeSats for education and research; and military/defense satellites.

Loading next visibility...
Identifier
59452, 2024-066L
Orbit
LEO
Country
Flag of UnknownUnknown / SKOR
Related business
Manufacturer
KAI
Mission
Operational Defense Radar Imaging
Bus & Motor
CAS500?, Unknown motor
Mass
~800 kg wet, ~750 kg dry
Launch date (UTC)
2024-04-07 (2 years ago)
Launch vehicle
FALCON 9
Launch site
Air Force Eastern Test Range (AFETR)
Object type
Payload
Rocket body
Debris
Shape & HBR
Hex Box + 3 Pan, 3.0 m
Radar Cross Section
10.467 m², Large (>1 m²)

Expand to show TLE details & history
Last TLE update: 21 hours ago

TLE from 21 hours ago
0 KORSAT-1
1 59452U 24066L   25293.70595959  .00008805  00000-0  73838-3 0  9996
2 59452  45.4117  46.0474 0009116 179.9395 180.1486 14.98741792 84129
Epoch: 2025-10-20T16:56Z
TLE epoch observation values (Epoch: 2025-10-20T16:56:34.908Z)
Latitude
Longitude
122.49753°
Altitude
577.161 km
Speed
7.57 km/s
True Right ascension
03h 04m 11s
True Declination
0° 00' 00"
Sunlit
Object was in full shadow at epoch
Visualization orbit readout
Latitude
Unknown
Longitude
Unknown
Altitude
Unknown
Speed
Unknown
Apparent Right ascension
Unknown
Apparent Declination
Unknown
Sunlit
N/A
Visualization observer readout
Local Sidereal Time
09:09:53
Azimuth
Unknown
Elevation
Unknown
Doppler factor
Unknown
Orbital elements
Apogee altitude
578.639 km
Perigee altitude
565.967 km
Semi-major axis
6,950.44 km
Eccentricity
0.00091
Inclination
45.4117°
RAAN
46.0474°
Arg. of periapsis
179.9395°
True anomaly
180.14833°
Mean anomaly
180.1486°
Eccentric anomaly
180.14846°
Mean motion
3.74563 °/min
Orbital period
96.11 mins
BSTAR
0.00073838
Loading maneuver chart data...
Computing Atmospheric mass density...
Loading historical data...
Loading historical data...
Loading historical data...
Loading historical data...
Loading historical data...
Loading historical data...
Loading historical data...

Documentation

Showing up to 5 results
|